TIMESTAMP,CO2_1_1_1,H2O_1_1_1,TAU_1_1_1,TAU_SSITC_TEST_1_1_1,H_1_1_1,H_SSITC_TEST_1_1_1,LE_1_1_1,LE_SSITC_TEST_1_1_1,FC_1_1_1,FC_SSITC_TEST_1_1_1,WD_0_0_1,WS_0_0_1,WS_MAX_0_0_1,U_SIGMA_0_0_1,V_SIGMA_0_0_1,W_SIGMA_0_0_1,USTAR_0_0_1,MO_LENGTH_0_0_1,ZL_0_0_1,FETCH_MAX_0_0_1,FETCH_70_0_0_1,FETCH_80_0_0_1,FETCH_90_0_0_1,PA_0_0_1,RH_0_0_1,TA_0_0_1,VPD_0_0_1,T_SONIC_0_0_1,T_SONIC_SIGMA_0_0_1
[yyyymmddHHMMSS],[mmolCO2 mol-1],[mmolH2O mol-1],[kg m-1 s-2],[#],[W m-2],[#],[W m-2],[#],[umolCO2 m-2 s-1],[#],[Decimal degrees],[m s-1],[m s-1],[m s-1],[m s-1],[m s-1],[m s-1],[m],[#],[m],[m],[m],[m],[kPa],[%],[deg C],[hPa],[deg C],[deg C]
20221229003000,431.56713676920873,4.7416034328352206,0.61253872733723080,0,-30.104936162754871,0,-1.1801052757728490,0,0.73176239744053206,0,139.43614123443692,3.3537586651450857,8.5905950933219675,1.3941672909039677,1.1625851443497786,0.84973131610783614,0.71805890131196148,1012.0021966113020,1.8774662805695147E-002,109.43535642452905,200.08273416082443,239.44793094716033,299.76039562070815,92.311896463324658,89.096551724137925,-2.9268965517241554,0.53579956029458575,-2.5450262527465384,8.6063709247669998E-002
20221229010000,431.72805898448706,4.7520689412779271,0.54524999716430889,0,-29.562162540224126,0,-1.0508692222686373,0,0.65082544554290012,0,141.92137482667312,2.6973074511353916,7.6047739144083808,1.2979945170046951,1.1350877705803368,0.84317533700339153,0.67743271740927269,865.56300166420817,2.1951030674218878E-002,105.10261412015377,192.16109937114356,229.96775731766823,287.89234319491101,92.340605710720482,88.976666666666674,-2.8750000000000000,0.54378689779643707,-2.5055975655449743,9.0268449399591624E-002
20221229013000,431.96555189581716,4.7685731671159752,0.41830209815114616,0,-33.154740896127464,0,-0.96425263859749855,0,0.83276223379203762,0,145.06092640249827,2.5082230359823252,7.2417042720192590,1.1927295826568185,0.88720077538663811,0.68465307143885412,0.59325980710455317,518.46911027675151,3.6646349075373202E-002,111.65402722049750,204.13917198461206,244.30245099355787,305.83767866049317,92.369260617404507,89.333333333333329,-2.8779999999999859,0.52607490023635539,-2.5118645146687868,9.6671471124259098E-002
20221229020000,431.98727440974687,4.7906523317380083,0.52850246373932008,0,-32.171989727394717,0,3.8303774151458019E-002,2,0.94128903216231641,0,139.61628675221732,2.7597044827500361,6.8512392499855030,1.1700490446327680,0.91294300928707639,0.75929830045174507,0.66686769445199001,758.87121195382701,2.5037186416759265E-002,112.86432819158865,206.35198816546327,246.95062680089828,309.15288052731040,92.366759358330555,89.673333333333332,-2.8673333333333630,0.50971062370448295,-2.4992275203487111,0.10555540539264445
20221229023000,432.01051234176140,4.8275023091613578,0.49464218982493108,0,-35.141658923021090,0,-7.8721535041923418E-002,2,1.1290107095193587,0,145.07167016865361,3.0200171622158480,8.3568850273906445,1.2527266454476484,1.0952687009441031,0.77557424178691403,0.64531146807529993,629.58481089047416,3.0178618783904140E-002,108.08656242553114,197.61670855487390,236.49672812856556,296.06583989429373,92.378066579861112,89.283333333333331,-2.7040000000000077,0.53542317430380759,-2.3355475082396993,0.10279544218851180
20221229030000,432.07798580599115,4.8613972272774166,0.45533667286004664,0,-26.932551595508233,0,-0.56426452680589323,0,0.82155144830198878,0,144.27570853941998,3.0190576920832788,7.6894454969076245,1.1963076100586503,1.0070264414931809,0.78430360480506822,0.61936187556920408,726.15927702244880,2.6165058550112863E-002,103.66284081051754,189.52873456898325,226.81748896483384,283.94858104160420,92.349680638020828,89.180000000000007,-2.5983333333333576,0.54484476054170783,-2.2316146706475024,9.1857737132260781E-002
20221229033000,432.06090274770537,4.8972349536629869,0.40798836604157357,0,-29.238578872589727,0,-1.0698566932302216,1,0.96832065750948904,0,145.97544693015672,2.7367197831901420,7.3550181630279763,1.1696241466355994,1.0396467772850608,0.73192193029626829,0.58644974883866985,567.74030486898369,3.3466005208815659E-002,104.87397652740709,191.74307693138246,229.46749122169501,287.26606940648708,92.330190086371530,89.156666666666666,-2.4986666666666792,0.55007275518622689,-2.1316818110148006,9.7382437284411066E-002
20221229040000,432.08802106734998,4.9295180494855826,0.47598133647974950,0,-29.323641480454718,0,-0.55185978249140288,1,1.0580194884275087,0,150.67034084855720,2.9029439063698623,8.3075204942555505,1.2297660367726917,1.0041612887695104,0.74463991219174142,0.63350014911312957,713.61155728158474,2.6625129324387847E-002,110.02597572894436,201.16257461766139,240.74022417889321,301.37819339774427,92.337151801215285,89.266666666666666,-2.4256666666666433,0.54744779863959081,-2.0544305402967211,0.10822702712769269
20221229043000,432.10154867217216,4.9818719221617194,0.39163397306147030,0,-30.591814799084410,0,0.46282064583241078,2,1.5161239269704136,0,155.19363026470003,2.5997616059266537,6.5748590611898319,1.1136764384960263,0.87148158709481416,0.69565931555059590,0.57476322472135621,510.89054556392699,3.7189962047599799E-002,107.48028117271339,196.50823306123502,235.17016607127121,294.40514161414143,92.343755357421884,89.323333333333338,-2.2906666666666524,0.55003120861997901,-1.9154963599310690,0.14123731436433826
20221229050000,431.97881092739692,5.0372685589285648,0.25466023606137667,0,-25.575742745384130,0,-0.64845632291624311,0,0.91710298757078168,0,153.60931344741243,2.5986174957207080,6.1055033495066153,0.94562935857827080,0.83756723141732548,0.62168617768108125,0.46369945824632636,320.88342657058223,5.9211534241768379E-002,99.034656908847623,181.06693831318316,216.69088001956047,271.27126830925403,92.342080232855906,88.673333333333332,-2.0426666666666620,0.59431997105072865,-1.6536467039319973,0.13154266770609882
20221229053000,432.04373793859259,5.0857661947799233,0.20178910761680477,0,-16.439805737069847,0,0.95480850979403098,2,0.81376196040368731,0,155.37184335675818,2.4504426366104322,5.3953027886376166,0.86631599719375940,0.79709403998108719,0.56821075070808158,0.41285614191236997,352.39269962918428,5.3917121495403612E-002,96.980929563221963,177.31206972263749,212.19726132349669,265.64579093397469,92.359136034722226,88.476666666666659,-1.8803333333333399,0.61193050591938292,-1.4850964898002985,0.10966694422350456
20221229060000,432.15853153470306,5.1477525483687643,0.31863530141470159,0,-26.708857564163591,0,-0.52337885956747299,1,1.0913962329041416,0,149.03177286925387,2.4460282842234955,6.3802851617309209,0.94545963758439355,0.77307941060489493,0.59083632180928969,0.51896290057645589,430.76083189349134,4.4108002848081335E-002,112.87303453082544,206.36790613033261,246.96967653934192,309.17672853931765,92.344304304623691,88.723333333333329,-1.7559999999999718,0.60434808254015937,-1.3609797119981408,0.10966990595499276
20221229063000,432.13034893830871,5.2250814439593931,0.23821474237211648,0,-8.0842477469271437,0,0.89226502475472191,2,0.72623120774928074,0,148.82759958274019,2.3693829337159120,5.4462489925340263,0.86127694118963727,0.77749669790896359,0.55726477014946341,0.44890292006528359,920.94403988708018,2.0631003814661365E-002,105.32405559392177,192.56596501032718,230.45227808364393,288.49890569858690,92.322477133246522,89.036666666666662,-1.6046666666666738,0.59414263546686696,-1.2066905805799593,0.10482198912664348
20221229070000,432.15427325429022,5.3266944708625363,0.26982692562182026,0,-20.055483904026705,0,-1.1907458120004748,1,1.0981002924046850,0,149.77756951025793,2.7874308957999889,7.5840616687886913,1.0120019417684687,0.79605929855697033,0.59542147715908755,0.47787202013484836,447.87967989332191,4.2422107661873633E-002,105.01336752551641,191.99792813240498,229.77248301941404,287.64788294558792,92.333233919704853,89.799999999999997,-1.4573333333333380,0.55879967944017950,-1.0588346811929910,0.10885689918668673
20221229073000,432.32976556755182,5.4005254926916830,0.35397247768233092,0,-16.955787506633808,0,0.92533848774143324,2,1.0485490062783680,0,151.07882027828597,2.8223638491387746,6.7277458924568414,1.1563489765248529,0.97269288751961225,0.71038386454529789,0.54735436235894086,796.20800042455892,2.3863111134111568E-002,101.64249007852925,185.83488907309163,222.39689932755513,278.41452738198046,92.355092336588541,90.563333333333333,-1.3820000000000050,0.51985181210235509,-1.0026180911593769,8.9594863570510733E-002
20221229080000,432.39540911040837,5.4907102199927396,0.40197756146028596,0,-21.877212140727817,0,-4.3789802286708541,1,0.70140609231719875,1,145.47939991494985,2.7770440400152707,6.6777956030415373,1.1459839961981941,0.91242846109915654,0.66151554712756755,0.58348384371704187,747.41697857880172,2.5420883582452349E-002,113.25201128190834,207.06079649974760,247.79888934486203,310.21480457385775,92.332075666256870,91.356666666666669,-1.2786666666666520,0.47977610997454007,-0.92554389880274357,8.7097197541642746E-002
20221229083000,432.49400280230731,5.6197826470471579,0.30431995335986983,0,-18.690398466902362,0,-1.9896661799441571,1,1.6155499047889990,0,148.85917609410802,2.4243418551352041,5.8006280284579033,0.93414176621676603,0.82933054103516302,0.61412127256798688,0.50779328583052408,576.71791421489934,3.2945049098856552E-002,107.54770574041152,196.63150667495009,235.31769310236791,294.58982795088019,92.344803649305561,92.549999999999997,-1.1370000000000005,0.41785760438364605,-0.98815080685085377,0.11347119944996499
20221229090000,432.56883002486808,5.8965524225909736,0.18673062259725520,0,-11.070572319952865,0,-0.52233441944959624,2,0.96326450350480930,0,152.39831655818091,2.2074038141041301,5.8680216264513128,0.82345076618579294,0.73847903912591872,0.54300644397801279,0.39798886077991752,468.85120566872257,4.0524583855767835E-002,97.657959674896020,178.54989669445689,213.67862406334464,267.50028129936686,92.359610469835076,94.890000000000001,-0.81933333333336122,0.29335749554643370,-1.2743944371541147,9.2229437206733766E-002
20221229093000,432.92550032896526,6.0507882112100075,0.23622078687545101,0,-12.322111869667255,0,0.61632810629827406,2,1.0401882316344535,0,141.13749704619923,2.1363603358999348,5.2963021634822676,0.84078212072190195,0.68940050381162532,0.50127016879251629,0.44775927774827740,599.90041038939751,3.1671923657573479E-002,114.40186027325038,209.16308718144737,250.31479435832458,313.36441910256326,92.367425051866320,96.243333333333339,-0.65866666666664742,0.21821232338623986,-1.3069160868326435,6.2052539093472373E-002
20221229100000,433.33610616014619,6.0865368207584263,0.19565772698648257,0,-13.171202710166474,0,0.61978186974163674,1,0.82511823909956983,0,140.03145372467654,2.2147420675739324,5.6816655942638281,0.82605980493314390,0.72611667857329909,0.50798779976476560,0.40754267720460369,423.17124577027448,4.4899080903796719E-002,104.98101065645866,191.93876945607335,229.70168519318182,287.55925246832089,92.364153241853259,96.556666666666658,-0.62299999999999045,0.20053352513671371,-1.2494711039873891,8.5484113803486667E-002
20221229103000,433.53711538366878,6.1584371646166511,0.23468799501659254,0,-12.555354778010189,1,-2.1557915334722373,1,0.99711810378277588,0,151.00764680116413,2.2622994234224918,6.1145779670906029,0.91429448545443570,0.78039376932503013,0.54061883302612534,0.44649323766993759,583.77962194383099,3.2546528323025473E-002,107.44689549867338,196.44719340127526,235.09711718804607,294.31369308063938,92.365588677886620,96.433333333333337,-0.44433333333336122,0.21044205806116567,-1.0939507766368024,0.12254944005736375
20221229110000,433.53333058774570,6.2448576320131615,0.20407421466887768,0,-39.226752927798309,1,-2.4775923015513612,1,1.1550721361460321,0,154.21797241662844,2.0156080990640040,6.1234513647800792,0.90124387202870315,0.77435446759002824,0.55431189983551110,0.41644763571306415,151.66460312394574,0.12527642975778944,99.609293285093742,182.11755687983336,217.94820211211473,272.84528636986482,92.408665400390632,96.136666666666670,-0.20433333333335213,0.23196627083350790,-0.74343553331164003,0.42964927254442375
20221229113000,433.88526483501732,6.2785586342020459,0.22609258421457118,0,-4.6394493000786099,1,-0.17949698762909450,1,1.4748130692803920,0,141.81838094355697,2.3060923134875480,5.3113130565479230,0.87948166857258203,0.68068402885691381,0.48122558857154801,0.43837099806117985,1495.6072612751900,1.2703869854041865E-002,116.21157342521198,212.47182000163968,254.27450248194103,318.32150379727182,92.399928525390635,96.566666666666663,-0.19299999999998363,0.20631784762496977,-0.57974500783279836,0.12084092504470315
20221229120000,434.13738753605816,6.2782292665649955,0.22529736207893727,0,-18.589794652306754,0,-0.21265271757991891,1,1.3248289700492457,0,140.12714402134452,2.6891113701530278,6.1886854758089411,0.96129733086489544,0.76398594974147838,0.57778065861274064,0.43754505749836381,371.22047636234987,5.1182521465906475E-002,100.24500135742962,183.27983398475408,219.33915095699018,274.58658926765446,92.423656451388894,96.569999999999993,-0.19066666666668652,0.20615253759086044,-0.65648259480792603,0.11573576845472675
20221229123000,434.31507018575354,6.2945315155713457,0.25096943616228806,0,-32.712797832565172,0,-0.13789288123644289,0,1.0113653287061668,0,146.81993321651450,2.3029807021397373,5.7403357817527185,0.99755518195695236,0.83907497094382799,0.62847821573893692,0.46184655736597491,248.13647081710880,7.6570767438713674E-002,97.863531881869619,178.92574825269730,214.12842238473098,268.06337542273207,92.446059808159731,96.016666666666666,-7.2666666666691526E-002,0.24147285833033835,-0.39164313591845712,0.16220146637985411
20221229130000,434.56708914554133,6.3031046659063446,0.22448014203067013,0,-20.524626395597444,0,-0.47010162423454266,0,0.95223394625817481,0,142.41758203217205,2.4083915832283793,6.5266021897421114,1.0117062641469929,0.75685257596318956,0.52315849516001056,0.43689454373539521,334.72207108001936,5.6763511108467717E-002,108.40506422322206,198.19903142199118,237.19361987316947,296.93826566235504,92.420335578933305,95.776666666666671,-2.3333333333312112E-002,0.25694145627466808,-0.17417402971699403,0.13060992908804944
20221229133000,434.70409868772924,6.3479526599617602,0.28503349055712979,0,-27.429500898635908,0,0.52467180951608627,2,1.8639017991351796,0,159.38605811734266,2.6030200549136318,7.2550658973216686,1.0902906845982516,0.94773958055018936,0.66693835074183527,0.49235388521158313,358.53722509984459,5.2993102723737889E-002,98.221879970044981,179.58092284714272,214.91249904035587,269.04494635365376,92.446083196614580,95.620000000000005,0.10066666666665469,0.26888343350920080,3.7358423021146336E-002,0.15365010009332380
20221229140000,434.87865849965846,6.3551908115906377,0.30140207620846010,0,-26.932159118937879,0,-0.62494457146562721,0,1.6483626727866720,0,154.29287522169696,2.5049453785658704,6.8857227339911606,1.1236637410724957,0.87103064552985965,0.65541868680002724,0.50626200616531636,397.06489294809927,4.7851120402335613E-002,101.84509387761258,186.20531343498348,222.84020268103754,278.96949057625085,92.471680825954863,95.473333333333329,0.14133333333330711,0.27870852641610216,0.20073468780520898,0.11781413829067450
20221229143000,435.20740296445393,6.3854079007172180,0.20304410164696515,0,-8.3189338039864449,0,-0.57663702925206162,1,0.84664697462066107,0,150.70720987061100,2.0416950085399042,5.7816950354591716,0.89036520779377271,0.66585810904138587,0.53822035589760753,0.41550575591224254,710.65642287892354,2.6735845041728528E-002,101.80015518060752,186.12315116439592,222.74187542768098,278.84639652298478,92.467987829210074,96.200000000000003,0.10166666666668789,0.23329479868792533,0.16314921993682674,9.8104382403876714E-002
20221229150000,435.34054068058163,6.4369361262742375,0.18544368543056081,0,-7.4362094567844119,1,0.57583673957546400,2,1.7314569907953434,0,166.57672086883110,2.0395535504763300,5.4538271848726376,0.85836948974763916,0.69200723706262646,0.61188869485722941,0.39711734232034629,694.25393825157039,2.7367507698768206E-002,88.603736940210638,161.99588983922001,193.86770580997100,242.69936249522291,92.501606759331594,96.079999999999998,0.23466666666666924,0.24299538644228733,0.30030718739828899,0.11227553154054846
20221229153000,435.12736386874133,6.4949351372008817,0.20662968343137783,0,-2.9940498453559661,2,0.18516746604798875,2,1.1034871480295052,0,163.40664005832801,2.5027360801464247,6.5795701235167110,0.96614553970410166,0.85823810308033777,0.60803392848001492,0.41931023504773157,2030.0610002549899,9.3593246693638599E-003,93.012436169110131,170.05639811214974,203.51407553012945,254.77547270498880,92.514451577690977,95.626666666666665,0.42566666666664332,0.27487449156658045,0.62645055135089933,0.33623860518679616
20221229160000,434.64989851361105,6.5599507005652349,0.25607000064935287,0,-41.080899610587188,0,-1.3987257760996674,1,2.1367800500864416,0,175.25103733669485,2.3544221565993273,6.1403869792022414,0.98085338669714361,0.87968074755791470,0.65099285451868072,0.46691800799590660,204.33799340681378,9.2983197511258484E-002,95.981254441556473,175.48434477020564,210.00994136290214,262.90752590013909,92.544124080512148,94.986666666666665,0.66066666666665697,0.32050133158301608,0.77844940948489239,0.16176617009766975
20221229163000,434.29141009455014,6.6452882547449654,0.17833574016689424,0,-30.311295245945335,0,2.0166118027661866,1,0.85621329782916633,0,170.49120753933391,2.2308453942361495,5.5196681270204886,0.94815025469361969,0.78696809525077538,0.58270924666270463,0.38988408117251722,161.23533339803171,0.11784017559659751,90.790785769859383,165.99451262326633,198.65303601996538,248.69002807019581,92.539091187500006,94.170000000000002,0.95866666666665878,0.38081278270237934,0.77259852176246113,0.12240700188901821
20221229170000,434.09390236810196,6.7417724820313571,0.23115459504303196,0,-27.696471911487684,0,2.8609065198684944,1,1.1324095021046126,0,173.10914359506933,2.0130848129225067,5.3609958693406252,0.86754401388242297,0.77674558974052210,0.52916339886709918,0.44413825654720601,260.79039461982399,7.2855444034654313E-002,108.84227448901278,198.99839122891899,238.15024940271866,298.13585231556107,92.507787988102180,94.046666666666667,1.1723333333333130,0.39489866021281617,0.79257606929854774,0.11766168889422028
20221229173000,433.90232687927255,6.7919054138529189,0.19673839790675923,0,-20.345246744049113,0,0.86171135359954631,2,0.82274104367779588,0,185.38262264478544,2.0401324876409710,5.0071996989185594,0.78576407409663851,0.70123338503197985,0.53588968797993874,0.40995634466641229,279.15144937069903,6.8063411609835353E-002,101.06125089432780,184.77219846764149,221.12513008779911,276.82242320743387,92.485015414279516,93.283333333333331,1.3853333333333353,0.45240690092923730,1.0467607421875300,8.2663634684188733E-002
20221229180000,433.76739558328558,6.8323782089774996,0.16434872742677678,0,-2.7154879514136336,0,-1.5896837390044916,2,0.57948189783257065,0,181.85808654555404,2.2281047286508162,5.5106179409575953,0.88902440275559791,0.81519165544243499,0.53008851033756188,0.37464754608273254,1596.7406659122560,1.1899239748581744E-002,94.858117334444486,173.43089193219689,207.55248277497847,259.83107936070309,92.520944041232639,93.640000000000001,1.4203333333333603,0.42946140862932453,1.0496325547960055,8.2540257506604042E-002
20221229183000,433.56913859663547,6.9187175785858361,0.20017561321256386,0,-5.7680602159544145,1,1.5594057205743408,1,0.54211512574298792,0,163.75638528687526,2.3210020146608659,5.4966382796098294,0.85222419597221033,0.69909415537016228,0.54364604565992825,0.41356813659191083,1011.3033754170912,1.8787636293771733E-002,100.60963419180149,183.94649909966370,220.13697883089083,275.58537509207849,92.535634440755217,93.733333333333334,1.5836666666666588,0.42814770676557601,1.2611505415175088,8.7870693926441160E-002
20221229190000,433.54007127176698,6.9809642460345556,9.4566647678624147E-002,0,2.9954729129390736,2,3.1779075278182431,2,3.1303786311190650E-002,1,158.74259330941061,1.4837928159965308,4.1487799695833791,0.57358831923385611,0.53115427918914004,0.38104349922060859,0.28438655655755041,-633.09758270226962,-3.0011171293533808E-002,99.083765899381390,181.15672521038809,216.79833200362125,271.40578544258182,92.515712695746544,93.306666666666672,1.7693333333333499,0.46342255869525617,1.4954175092909736,0.10982413108217211
20221229193000,433.40225845743026,7.0143286854956681,0.12920070485425580,0,-6.2768273180597687,0,0.41412113115177090,2,8.2321334354648709E-002,0,161.52518141170185,1.8113500305152481,4.3380852438974307,0.66694145812518468,0.69256142361673867,0.46300626874072826,0.33250379460947438,482.89126615480126,3.9346331838416682E-002,96.077719854064568,175.66071431033575,210.22101065702881,263.17175960999208,92.512008387369789,92.796666666666667,1.9119999999999777,0.50385066630199160,1.7531848509046881,8.3119631096437274E-002
20221229200000,433.12996099726746,7.1138589272648769,0.10273840016258075,0,2.1554763855370669,1,1.6290745807057823,0,-0.12170916525718399,0,178.19308492454337,1.4717961449956318,4.1827515968461570,0.60709448843160330,0.50861895288182257,0.37622409355589381,0.29662968541602303,-998.34074259002978,-1.9031578287296624E-002,103.53073688713751,189.28720646465914,226.52844151109650,283.58672792914365,92.503099015407997,92.793333333333337,2.1083333333333485,0.51120567877120604,2.0404761691623321,0.14960303390319224
20221229203000,433.02968668787446,7.1379953007356436,0.13748754509384631,0,-0.44028755481521920,2,4.9328244962580250,1,-7.4608401656142118E-002,2,162.09533673550575,1.7859840282106638,4.8340451423091260,0.70406358359636767,0.56950866650572518,0.42168303672238827,0.34328350599072671,7574.7370730443972,2.5083378890620191E-003,106.21560931931643,194.19600956682524,232.40302509858336,290.94100947722927,92.492379752170152,91.876666666666665,2.2933333333333508,0.58388555971859546,2.3351049584283032,7.6695411400490951E-002
20221229210000,433.02922120332892,7.2136973744623525,0.11676925021464320,0,-4.7038178840786387,0,0.41062452301664265,1,-3.3306771207842659E-002,2,167.79757347967978,1.7684117119627918,4.5175199494745426,0.69831636098216021,0.62718914826705163,0.39599439443927925,0.31643993624162553,555.41284100244911,3.4208787765344841E-002,104.64938968616885,191.33246055729975,228.97608829480328,286.65089125401119,92.504583757378484,91.793333333333337,2.4560000000000173,0.59675120497655254,2.5628692364163044,8.5860206695921495E-002
20221229213000,433.05292844100933,7.2354303638097113,0.11153690435595327,0,-16.173172707655983,0,-1.1865473839042453,2,7.0334171772510334E-002,2,167.10199247901701,2.0138296091052283,4.4236672226763361,0.69115455090391076,0.65175419712970095,0.43640789847899203,0.30922529234881957,150.79352394325582,0.12600010599360867,95.051904952886929,173.78519750410061,207.97649605364151,260.36189367034314,92.551843375868060,91.719999999999999,2.5166666666666515,0.60468919889590322,2.6676965866088835,0.11327048105443219
20221229220000,433.25042993076704,7.1958653394808376,8.3887110030028231E-002,0,-15.134110262846102,0,-0.93663804776795079,1,6.0609837572956439E-002,0,161.38107995440012,1.7143437673886806,4.4023988541264174,0.63144604057331144,0.51183968072487662,0.35704732713875259,0.26807732721564526,104.99587419699252,0.18095949145918186,99.559415590916288,182.02636454720229,217.83906818080209,272.70866363816475,92.551847183810764,92.463333333333338,2.3263333333333094,0.54299316087318061,2.5082396960788174,0.12443578869402498
20221229223000,433.23246534347390,7.1762642408960655,0.14641595986036865,0,-42.493622726404858,0,-0.46256361053111050,0,0.41766200768024858,0,175.62943361575657,2.2074916340248629,4.9712409544898826,0.70271632558090780,0.64978892987002723,0.45193686690774754,0.35392695329543572,86.085163813736457,0.22071166689199240,102.97305403028646,188.26758433851083,225.30821424122166,282.05914818469569,92.601119506510415,93.739999999999995,2.1033333333333530,0.44389527490672093,2.2738019722833087,0.18130055631495526